Location: Arrington
(35.8681°N, 86.7092°W)
Time: 14:06:21
(UTC+00:00)

STARLINK-1032 - Visible Passes

Search period start: 18 February 2020 00:00
Search period end: 28 February 2020 00:00
Orbit: 549 x 551 km, 53.0° (Epoch: 18 February)

Date Brightness Start Highest point End Pass type
(mag) Time Alt. Az. Time Alt. Az. Time Alt. Az.
18 Feb 5.7 00:14:48 10° SE 00:16:11 11° ESE 00:17:03 11° ESE visible
18 Feb 5.7 01:51:06 10° SW 01:52:46 23° SW 01:52:46 23° SW visible
19 Feb 5.3 00:07:54 10° SSE 00:10:33 17° SE 00:12:43 12° E visible
19 Feb 5.0 01:45:43 10° WSW 01:48:25 37° W 01:48:25 37° W visible
20 Feb 4.9 00:01:37 10° S 00:04:56 24° SE 00:08:15 10° ENE visible
20 Feb 4.8 01:40:24 10° WSW 01:43:57 39° NW 01:43:57 39° NW visible
20 Feb 4.4 23:55:36 10° SSW 23:59:20 33° SE 00:03:04 10° ENE visible
21 Feb 5.1 01:35:12 10° W 01:38:52 30° NW 01:39:22 30° NNW visible
21 Feb 4.0 23:49:46 10° SSW 23:53:44 48° SE 23:57:43 10° ENE visible
22 Feb 5.5 01:30:05 10° W 01:33:28 24° NNW 01:34:38 21° N visible
23 Feb 5.8 01:25:03 10° WNW 01:28:04 19° NNW 01:29:47 15° N visible
24 Feb 6.1 01:20:06 10° WNW 01:22:42 16° NNW 01:24:50 12° N visible
25 Feb 6.2 01:15:18 10° NW 01:17:20 13° NNW 01:19:21 10° N visible
26 Feb 6.3 01:10:42 10° NW 01:11:59 11° NNW 01:13:16 10° N visible
